Location: Sorocaba
(23.4830°S, 47.4500°W)
Time: 09:46:42
(UTC-03:00)

Tiangong - Visible Passes

Search period start: 25 May 2022 00:00
Search period end: 04 June 2022 00:00
Orbit: 386 x 389 km, 41.5° (Epoch: 24 May)

Date Brightness Start Highest point End Pass type
(mag) Time Alt. Az. Time Alt. Az. Time Alt. Az.
25 May 3.0 05:01:01 25° SE 05:01:01 25° SE 05:03:26 10° E visible
26 May 1.2 05:37:33 32° WSW 05:38:45 58° NW 05:41:53 10° NE visible
27 May 3.8 04:41:48 20° ENE 04:41:48 20° ENE 04:43:00 10° ENE visible
27 May 3.6 06:16:09 10° NW 06:16:26 10° NW 06:16:43 10° NW visible
28 May 2.9 05:18:19 20° NNW 05:18:19 20° NNW 05:20:09 10° NNE visible
29 May 2.7 19:07:54 10° NNW 19:09:45 28° NNW 19:09:45 28° NNW visible
30 May 3.0 18:09:37 10° N 18:11:55 18° NE 18:13:48 12° E visible
30 May 4.6 19:45:44 10° W 19:46:04 12° W 19:46:04 12° W visible
31 May 1.2 18:46:13 10° WNW 18:49:24 71° SW 18:50:00 52° SSE visible
01 Jun 3.9 19:25:02 10° WSW 19:26:05 14° SW 19:26:05 14° SW visible
02 Jun 2.6 18:24:51 10° W 18:27:43 30° SSW 18:29:47 15° SSE visible
